This is the latest recevied weather packets stored in our database for station/object JR4ZXW. If no packets are shown the sender has not sent any weather packets the latest 10 day(s).
| Time | Temp. | Humidity | Pressure | Rain* | Wind** | Luminosity | Snow |
|---|---|---|---|---|---|---|---|
| 1787674290 | 30° C | 55% | 1010.4 hPa | 0 mm | - | - | - |
| 1787672490 | 30° C | 54% | 1010.5 hPa | 0 mm | - | - | - |
| 1787670690 | 30° C | 56% | 1011 hPa | 0 mm | - | - | - |
| 1787668890 | 30° C | 54% | 1010.9 hPa | 0 mm | - | - | - |
| 1787667090 | 30° C | 54% | 1010.9 hPa | 0 mm | - | - | - |
| 1787665290 | 30° C | 54% | 1010.7 hPa | 0 mm | - | - | - |
| 1787663490 | 30.56° C | 50% | 1010.8 hPa | 0 mm | - | - | - |
| 1787661690 | 30.56° C | 49% | 1010.4 hPa | 0 mm | - | - | - |
| 1787659890 | 31.67° C | 46% | 1010.5 hPa | 0 mm | - | - | - |
| 1787658090 | 31.67° C | 48% | 1010.4 hPa | 0 mm | - | - | - |
| 1787656290 | 32.78° C | 56% | 1010.3 hPa | 0 mm | - | - | - |
| 1787654490 | 31.67° C | 53% | 1009.7 hPa | 0 mm | - | - | - |
| 1787652690 | 32.78° C | 52% | 1009.2 hPa | 0 mm | - | - | - |
| 1787650890 | 32.78° C | 49% | 1009 hPa | 0 mm | - | - | - |
| 1787649090 | 33.89° C | 48% | 1008.8 hPa | 0 mm | - | - | - |
| 1787647290 | 33.89° C | 46% | 1008.9 hPa | 0 mm | - | - | - |
| 1787645490 | 35° C | 43% | 1008.9 hPa | 0 mm | - | - | - |
| 1787643690 | 35° C | 41% | 1009.2 hPa | 0 mm | - | - | - |
| 1787641890 | 35° C | 39% | 1009 hPa | 0 mm | - | - | - |
| 1787640090 | 33.89° C | 47% | 1009.2 hPa | 0 mm | - | - | - |
| 1787638290 | 35° C | 45% | 1009.2 hPa | 0 mm | - | - | - |
| 1787636490 | 33.89° C | 49% | 1009.7 hPa | 0 mm | - | - | - |
| 1787634690 | 33.89° C | 49% | 1010.2 hPa | 0 mm | - | - | - |
| 1787632890 | 33.89° C | 52% | 1010.5 hPa | 0 mm | - | - | - |
| 1787631090 | 33.89° C | 55% | 1011 hPa | 0 mm | - | - | - |
* Rain latest hour (hover to see other rain measurements)
** Current wind speed in m/s (hover to see current wind gust speed)